#timestamp,LO_Frequency,Hit 
1503183615.1,286046997.7,N
1503183635.8,286046996.8,N
1503183655.7,286046999.6,N
1503183675.5,286047000.8,N
1503183695.3,286046997.4,N
1503183715.2,286046997.5,N
1503183735.9,286046997.6,N
1503183755.7,286046998.0,N
1503183775.6,286046997.2,N
1503183795.4,286046996.2,N
1503183815.2,286046993.9,P
1503183835.1,286046998.3,N
1503183836.0,286046998.3,N
1503183855.8,286047000.2,N
1503183875.6,286047003.5,N
1503183895.5,286047001.4,N
1503183915.3,286047002.0,N
1503183935.1,286047000.3,N
1503183955.8,286046999.1,N
1503183975.7,286046994.9,N
1503183995.5,286047000.7,N
1503184015.3,286046999.3,N
1503184035.2,286046998.7,N
1503184055.9,286047001.2,N
1503184075.7,286047002.2,N
1503184095.6,286047002.7,N
1503184115.4,286047005.5,N
1503184135.2,286047004.2,N
1503184155.1,286047004.3,N
1503184156.0,286047004.3,N
1503184175.8,286047005.8,N
1503184195.6,286047006.3,N
1503184215.5,286047005.0,N
1503184235.3,286047007.5,N
1503184255.1,286047006.2,N
1503184275.8,286047005.6,N
1503184295.7,286047001.4,N
1503184315.5,286047003.0,N
1503184335.3,286047003.0,N
1503184355.2,286047003.2,N
1503184375.0,286047003.3,N
1503184375.9,286047003.3,N
1503184395.7,286047006.0,N
1503184415.6,286047004.5,N
1503184435.4,286047005.5,N
1503184455.2,286047006.7,N
1503184475.1,286047008.6,P
1503184476.0,286047008.6,P
1503184495.8,286047003.3,N
1503184515.6,286047000.3,N
1503184535.5,286047002.3,N
1503184555.3,286046998.6,N
1503184575.1,286046999.7,N
1503184595.9,286046999.0,N
1503184615.7,286047000.4,N
1503184635.5,286046998.8,N
1503184655.4,286047002.6,N
1503184675.2,286047000.8,N
1503184695.0,286047001.1,N
1503184695.9,286047001.1,N
1503184715.8,286047000.1,N
1503184735.6,286047000.7,N
1503184755.4,286047000.6,N
1503184775.3,286047000.5,N
1503184795.1,286047000.9,N
1503184796.0,286047000.9,N
1503184815.8,286047002.7,N
1503184835.7,286047001.3,N
1503184855.5,286047000.5,N
1503184875.3,286047000.4,N
1503184895.1,286047000.6,N
1503184915.9,286046996.9,N
1503184935.7,286046995.7,N
1503184955.5,286046995.7,N
1503184975.4,286046996.1,N
1503184995.2,286046997.1,N
1503185015.0,286046997.3,N
1503185015.9,286046997.3,N
1503185035.8,286046997.3,N
1503185055.6,286046997.0,N
1503185075.4,286046997.3,N
1503185095.3,286047002.5,N
1503185115.1,286047000.1,N
1503185116.0,286047000.1,N
1503185135.8,286046998.6,N
1503185155.7,286046998.9,N
1503185175.5,286046996.7,N
1503185195.3,286046997.0,N
1503185215.2,286046997.9,N
1503185235.9,286046997.3,N
1503185255.7,286046996.9,N
1503185275.5,286047001.2,N
1503185295.4,286047002.2,N
1503185315.2,286046999.7,N
1503185335.0,286047001.3,N
1503185335.9,286047001.3,N
1503185355.8,286047003.1,N
1503185375.6,286046999.8,N
1503185395.4,286046999.5,N
1503185415.3,286046999.0,N
1503185435.1,286046995.7,N
1503185436.0,286046995.7,N
1503185455.8,286046996.5,N
1503185475.7,286046995.4,N
1503185495.5,286046995.7,N
1503185515.3,286046996.9,N
1503185535.2,286046999.6,N
1503185555.9,286046997.7,N
1503185575.7,286047000.5,N
1503185595.6,286047002.2,N
1503185615.4,286047002.2,N
1503185635.2,286047000.6,N
1503185655.0,286046996.7,N
1503185655.9,286046996.7,N
1503185675.8,286046996.3,N
1503185695.6,286046997.0,N
1503185715.4,286046999.5,N
1503185735.3,286046999.5,N
1503185755.1,286047002.7,N
1503185775.8,286047004.4,N
1503185795.7,286047002.3,N
1503185815.5,286047002.5,N
1503185835.3,286047004.3,N
1503185855.2,286047000.3,N
1503185875.9,286047000.4,N
1503185895.7,286047000.7,N
1503185915.6,286046998.6,N
1503185935.4,286046999.4,N
1503185955.2,286046998.9,N
1503185975.0,286046999.1,N
1503185976.0,286046999.1,N
1503185995.8,286046998.2,N
1503186015.6,286046998.9,N
1503186035.4,286046995.6,N
1503186055.3,286046997.8,N
1503186075.1,286046995.4,N
1503186095.8,286046994.3,N
1503186115.7,286046991.7,P
1503186135.5,286046993.1,N
1503186155.3,286046992.9,N
1503186175.2,286046993.2,N
1503186195.0,286046996.2,N
1503186195.9,286046996.2,N
1503186215.7,286046994.4,N
1503186235.6,286046996.4,N
1503186255.4,286046992.2,P
1503186275.2,286046999.3,N
1503186295.1,286046999.2,N
1503186296.0,286046999.2,N
1503186315.8,286046998.4,N
1503186335.6,286047000.6,N
1503186355.5,286046999.6,N
1503186375.3,286046996.9,N
1503186395.1,286046996.8,N
1503186415.9,286046998.0,N
1503186435.7,286046998.0,N
1503186455.5,286046997.6,N
1503186475.4,286046999.6,N
1503186495.2,286046996.8,N
1503186515.0,286046999.0,N
1503186515.9,286046999.0,N
1503186535.8,286046998.2,N
1503186555.6,286046998.4,N
1503186575.4,286046998.3,N
1503186595.2,286046996.8,N
1503186615.1,286046999.2,N
1503186616.0,286046999.2,N
1503186635.8,286046998.6,N
1503186655.6,286046998.8,N
1503186675.5,286046998.4,N
1503186695.3,286046997.1,N
1503186715.1,286046997.7,N
1503186735.9,286046996.7,N
1503186755.7,286047000.6,N
1503186775.5,286047004.4,N
1503186795.4,286047004.2,N
1503186815.2,286047000.2,N
1503186835.0,286047002.6,N
1503186835.9,286047002.6,N
1503186855.8,286047000.6,N
1503186875.6,286046998.4,N
1503186895.4,286047000.9,N
1503186915.3,286046998.4,N
1503186935.1,286046996.9,N
1503186936.0,286046996.9,N
1503186955.8,286046997.0,N
1503186975.6,286047000.7,N
1503186995.5,286046998.3,N
1503187015.3,286047000.4,N
1503187035.1,286047000.6,N
1503187055.9,286047000.4,N
1503187075.7,286047000.0,N
1503187095.5,286047004.3,N
1503187115.4,286047003.0,N
1503187135.2,286047002.5,N
1503187155.0,286047002.1,N
1503187155.9,286047002.1,N
1503187175.8,286047004.4,N
1503187195.6,286047004.3,N
